Location: Choisy
(48.7685°N, 2.4187°E)
Time: 03:45:32
(UTC+00:00)

Cosmos 1140 Rocket - Pass Details

Date: 24 October 2021
Orbit: 743 x 768 km, 74.1° (Epoch: 28 November)

Event Time Altitude Azimuth Distance (km) Brightness Sun altitude
Rises 18:11:21 0° 341° (NNW) 3,218 7.0 -15.1°
Reaches altitude 10° 18:13:54 10° 350° (N) 2,293 6.1 -15.5°
Maximum altitude 18:18:43 37° 57° (ENE) 1,182 4.0 -16.3°
Enters shadow 18:20:37 28° 99° (E) 1,417 4.3 -16.6°
